Regional Weather Roundup
Issued by NWS

Home | Current Version | Previous Version | Text Only | Print | Product List | Glossary On
Versions: 1 2 3 4 5 6 7 8 9 10 11 12 13 14 15 16 17 18 19 20 21 22 23 24 25 26 27 28 29 30 31 32 33 34 35 36 37 38 39 40 41 42 43 44 45 46 47 48 49 50
000
ASUS45 KABQ 211010
RWRNM
WEATHER ROUNDUP FOR NEW MEXICO
NATIONAL WEATHER SERVICE ALBUQUERQUE NM
400 AM MDT MON APR 21 2014

NOTE: "FAIR" MEANS FEW OR NO CLOUDS BELOW 12,000 FEET AGL WITH NO
       SIGNIFICANT WEATHER OR OBSTRUCTIONS TO VISION.

      THIS PRODUCT IS RELEASED AS TWO VERSIONS.  ONE VERSION NEAR
      THE TOP OF THE HOUR CONTAINING PRELIMINARY DATA FROM ALBUQUERQUE
      AND OTHER STATIONS.  A FINAL VERSION WITH ADDITIONAL DATA IS
      ISSUED ABOUT 10 MINUTES AFTER THE HOUR.

NMZ501-503-504-510>518-211100-
NORTHWEST PLATEAU/NORTHCENTRAL MOUNTAINS

CITY           SKY/WX    TMP DP  RH WIND       PRES   REMARKS
FARMINGTON     CLEAR     43  27  53 N8        30.18R
LOS ALAMOS     PTCLDY    51  32  47 CALM      30.26R
SANTA FE       CLOUDY    47  36  65 NE8       30.21R
TAOS           CLEAR     37  34  87 CALM      30.28S
ANGEL FIRE     FAIR      32  32  99 CALM      30.33S

$$
NMZ402-403-502-505>509-211100-
WESTCENTRAL MOUNTAINS/SOUTHWEST MOUNTAINS

CITY           SKY/WX    TMP DP  RH WIND       PRES   REMARKS
GALLUP         CLOUDY    47  26  44 CALM      30.26R
GRANTS         FAIR      37  26  62 NW6       30.26S WCI  33
SILVER CITY    FAIR      46  37  71 N8        30.21R

$$
NMZ407-409-411-412-211100-
SOUTHERN DESERTS

CITY           SKY/WX    TMP DP  RH WIND       PRES   REMARKS
LORDSBURG      FAIR      50  45  81 CALM      30.14S
DEMING         FAIR      50  42  74 W7        30.13S
LAS CRUCES     FAIR      52  33  48 NW5       30.13S
HOLLOMAN AFB   PTCLDY    52  39  62 SE2       30.09S
ALAMOGORDO     PTCLDY    55  36  47 CALM      30.11S
T OR C         FAIR      56  38  50 W10       30.13S

$$
NMZ519>523-211100-
CENTRAL VALLEYS/CENTRAL HIGHLANDS

CITY           SKY/WX    TMP DP  RH WIND       PRES   REMARKS
ALBUQUERQUE    PTCLDY    53  35  50 SE5       30.17R
DOUBLE EAGLE   CLEAR     51  28  41 N10       30.19S
MORIARTY ARPT  FAIR      40  37  88 NW6       30.22R
CLINES CORNERS PTCLDY    49  38  65 E6        30.22R
BELEN          FAIR      45  36  69 NW3       30.16R
SOCORRO        FAIR      51  40  66 S5        30.15R

$$
NMZ524>526-539-540-211100-
SOUTHCENTRAL MOUNTAINS

CITY           SKY/WX    TMP DP  RH WIND       PRES   REMARKS
RUIDOSO        CLEAR     50  32  50 W8        30.23S

$$
NMZ527>531-211100-
NORTHEAST HIGHLANDS/NORTHEAST PLAINS

CITY           SKY/WX    TMP DP  RH WIND       PRES   REMARKS
LAS VEGAS      PTCLDY    46  36  68 N6        30.22S
RATON          CLEAR     40  36  86 NE8       30.19S WCI  34
CLAYTON        CLEAR     55  38  52 NW15      30.09R

$$
NMZ532>537-211100-
EASTCENTRAL PLAINS

CITY           SKY/WX    TMP DP  RH WIND       PRES   REMARKS
TUCUMCARI      CLEAR     54  42  64 NW8       30.06R
CANNON AFB     CLEAR     55  42  62 NW9       30.07S
CLOVIS AIRPORT   N/A     54  43  66 NW14      30.08F

$$
NMZ028-029-538-211100-
SOUTHEAST PLAINS

CITY           SKY/WX    TMP DP  RH WIND       PRES   REMARKS
ROSWELL        CLEAR     53  43  68 W5        30.06S
ARTESIA        CLEAR     54  41  62 W12       30.06S
CARLSBAD       CLEAR     57  44  62 NW9       30.03S
HOBBS          CLEAR     54  43  66 S3        30.07S


$$



USA.gov is the U.S. government's official web portal to all federal, state and local government web resources and services.